Weather History for PAKP - November, 2011

Change the Weather History Date:

Thursday, November 17, 2011

  Actual Average Record
Temperature  
Mean Temperature -10 °F -  
Max Temperature -5 °F 5 °F 24 °F (1996)
Min Temperature -14 °F -1 °F -27 °F (2003)
Degree Days  
Heating Degree Days 74    
Moisture  
Dew Point -18 °F    
Average Humidity 64    
Maximum Humidity 77    
Minimum Humidity 53    
Precipitation  
Precipitation 0.00 in - - ()
Sea Level Pressure  
Sea Level Pressure 30.44 in    
Wind  
Wind Speed 4 mph (East)    
Max Wind Speed 8 mph    
Max Gust Speed -    
Visibility 9 miles    
Events      
Averages and records for this station are not official NWS values.
T = Trace of Precipitation, MM = Missing Value Source: NWS Daily Summary

Daily Weather History Graph

Daily Weather History Graph

Search for Another Location

Airport or City:

Trip Planner

Search our weather history database for the weather conditions in past years. The results will help you decide how hot, cold, wet, or windy it might be!

Date:

Astronomy

Nov. 17, 2011 Rise Set
Actual Time 10:31 AM AKST 3:11 PM AKST
Civil Twilight 9:08 AM AKST 4:34 PM AKST
Nautical Twilight 7:54 AM AKST 5:48 PM AKST
Astronomical Twilight 6:47 AM AKST 6:55 PM AKST
Moon 11:12 PM AKST (11/17) 2:29 PM AKST (11/17)
Length of Visible Light 7h 25m
Length of Day
4h 39m
Waning Gibbous, 58% of the Moon is Illuminated
Nov 17
Waning Gibbous
Nov 18
Last Quarter
Nov 24
New
Dec 2
First Quarter
Dec 10
Full

Hourly Weather History & Observations

Time (AKST) Temp. Windchill Dew Point Humidity Pressure Visibility Wind Dir Wind Speed Gust Speed Precip Events Conditions
12:16 AM -13.0 °F -28.6 °F -20.2 °F 70% 30.42 in 10.0 mi ESE 6.9 mph - N/A   Mostly Cloudy
12:36 AM -11.2 °F -27.8 °F -22.0 °F 59% 30.42 in 10.0 mi ESE 8.1 mph - N/A   Overcast
12:56 AM -11.2 °F -26.4 °F -18.4 °F 70% 30.42 in 10.0 mi ESE 6.9 mph - N/A   Overcast
1:16 AM -11.2 °F -24.8 °F -22.0 °F 59% 30.42 in 10.0 mi East 5.8 mph - N/A   Overcast
1:36 AM -9.4 °F -24.3 °F -18.4 °F 65% 30.42 in 10.0 mi ESE 6.9 mph - N/A   Overcast
1:56 AM -9.4 °F -24.3 °F -22.0 °F 54% 30.42 in 10.0 mi East 6.9 mph - N/A   Overcast
2:16 AM -9.4 °F -24.3 °F -14.8 °F 77% 30.42 in 10.0 mi ESE 6.9 mph - N/A   Overcast
2:36 AM -9.4 °F -22.7 °F -22.0 °F 54% 30.42 in 10.0 mi ESE 5.8 mph - N/A   Overcast
2:56 AM -9.4 °F -18.6 °F -20.2 °F 59% 30.43 in 10.0 mi East 3.5 mph - N/A   Overcast
3:16 AM -9.4 °F - -18.4 °F 65% 30.43 in 10.0 mi Calm Calm - N/A   Overcast
3:36 AM -9.4 °F -22.7 °F -20.2 °F 59% 30.43 in 10.0 mi East 5.8 mph - N/A   Overcast
3:56 AM -7.6 °F -20.6 °F -16.6 °F 65% 30.43 in 10.0 mi East 5.8 mph - N/A   Overcast
4:16 AM -7.6 °F -20.6 °F -18.4 °F 59% 30.43 in 10.0 mi East 5.8 mph - N/A   Overcast
4:36 AM -5.8 °F -18.4 °F -14.8 °F 65% 30.43 in 10.0 mi East 5.8 mph - N/A   Overcast
4:56 AM -5.8 °F -19.9 °F -16.6 °F 60% 30.43 in 10.0 mi East 6.9 mph - N/A   Overcast
5:16 AM -7.6 °F -20.6 °F -16.6 °F 65% 30.43 in 10.0 mi East 5.8 mph - N/A   Overcast
5:36 AM -7.6 °F -20.6 °F -18.4 °F 59% 30.44 in 10.0 mi East 5.8 mph - N/A   Overcast
5:56 AM -5.8 °F -14.5 °F -11.2 °F 77% 30.44 in 10.0 mi NE 3.5 mph - N/A   Overcast
6:16 AM -5.8 °F - -16.6 °F 60% 30.44 in 10.0 mi Calm Calm - N/A   Overcast
6:36 AM -5.8 °F -16.7 °F -14.8 °F 65% 30.44 in 10.0 mi East 4.6 mph - N/A   Overcast
6:56 AM -5.8 °F -14.5 °F -14.8 °F 65% 30.45 in 10.0 mi ENE 3.5 mph - N/A   Overcast
7:16 AM -5.8 °F - -14.8 °F 65% 30.45 in 10.0 mi Calm Calm - N/A   Overcast
7:36 AM -7.6 °F - -16.6 °F 65% 30.45 in 10.0 mi Calm Calm - N/A   Overcast
7:56 AM -7.6 °F - -16.6 °F 65% 30.45 in 10.0 mi Calm Calm - N/A   Overcast
8:16 AM -7.6 °F -16.5 °F -16.6 °F 65% 30.45 in 10.0 mi West 3.5 mph - N/A   Overcast
8:36 AM -7.6 °F - -16.6 °F 65% 30.46 in 10.0 mi Calm Calm - N/A   Overcast
8:56 AM -5.8 °F -16.7 °F -14.8 °F 65% 30.47 in 10.0 mi WNW 4.6 mph - N/A   Overcast
9:16 AM -5.8 °F -16.7 °F -14.8 °F 65% 30.47 in 10.0 mi West 4.6 mph - N/A   Overcast
9:36 AM -5.8 °F - -16.6 °F 60% 30.47 in 10.0 mi Calm Calm - N/A   Overcast
9:56 AM -5.8 °F - -14.8 °F 65% 30.47 in 10.0 mi Calm Calm - N/A   Overcast
10:16 AM -5.8 °F - -14.8 °F 65% 30.47 in 8.0 mi Calm Calm - N/A   Overcast
10:36 AM -5.8 °F - -14.8 °F 65% 30.47 in 1.5 mi Calm Calm - N/A   Overcast
10:56 AM -5.8 °F - -16.6 °F 60% 30.46 in 10.0 mi Calm Calm - N/A   Overcast
11:16 AM -5.8 °F - -13.0 °F 71% 30.47 in 10.0 mi Calm Calm - N/A   Overcast
11:36 AM -5.8 °F - -14.8 °F 65% 30.46 in 3.0 mi Calm Calm - N/A   Overcast
11:56 AM -5.8 °F - -14.8 °F 65% 30.46 in 10.0 mi Calm Calm - N/A   Overcast
12:16 PM -5.8 °F - -16.6 °F 60% 30.46 in 10.0 mi Calm Calm - N/A   Overcast
12:36 PM -7.6 °F - -16.6 °F 65% 30.47 in 10.0 mi Calm Calm - N/A   Mostly Cloudy
12:56 PM -9.4 °F - -18.4 °F 65% 30.46 in 10.0 mi Calm Calm - N/A   Overcast
1:16 PM -9.4 °F - -16.6 °F 71% 30.46 in 9.0 mi Calm Calm - N/A   Scattered Clouds
1:36 PM -11.2 °F - -23.8 °F 54% 30.47 in 6.0 mi Calm Calm - N/A   Clear
1:56 PM -11.2 °F - -22.0 °F 59% 30.46 in 10.0 mi Calm Calm - N/A   Scattered Clouds
2:16 PM -13.0 °F - -20.2 °F 70% 30.46 in 4.0 mi Calm Calm - N/A   Overcast
2:36 PM -13.0 °F - -25.6 °F 53% 30.45 in 5.0 mi Calm Calm - N/A   Mostly Cloudy
2:56 PM -14.8 °F - -25.6 °F 58% 30.44 in 4.0 mi Calm Calm - N/A   Scattered Clouds
3:16 PM -13.0 °F - -20.2 °F 70% 30.44 in 8.0 mi Calm Calm - N/A   Clear
3:36 PM -14.8 °F - -23.8 °F 64% 30.44 in 7.0 mi Calm Calm - N/A   Clear
3:56 PM -11.2 °F -20.6 °F -16.6 °F 77% 30.43 in 4.0 mi ESE 3.5 mph - N/A   Clear
4:16 PM -7.6 °F -23.4 °F -18.4 °F 59% 30.42 in 8.0 mi East 8.1 mph - N/A   Clear
4:36 PM -5.8 °F -16.7 °F -13.0 °F 71% 30.42 in 10.0 mi ESE 4.6 mph - N/A   Clear
4:56 PM -7.6 °F - -20.2 °F 54% 30.42 in 10.0 mi Calm Calm - N/A   Clear
5:36 PM -9.4 °F -18.6 °F -18.4 °F 65% 30.41 in 10.0 mi South 3.5 mph - N/A   Clear
5:56 PM -9.4 °F - -18.4 °F 65% 30.41 in 10.0 mi Calm Calm - N/A   Clear
6:16 PM -11.2 °F -20.6 °F -23.8 °F 54% 30.41 in 10.0 mi West 3.5 mph - N/A   Clear
6:36 PM -14.8 °F - -25.6 °F 58% 30.41 in 10.0 mi Calm Calm - N/A   Clear
6:56 PM -14.8 °F - -25.6 °F 58% 30.42 in 3.0 mi Calm Calm - N/A   Clear
7:36 PM -16.6 °F - -27.4 °F 58% 30.41 in 10.0 mi Calm Calm - N/A   Clear
7:56 PM -14.8 °F - -22.0 °F 70% 30.41 in 10.0 mi Calm Calm - N/A   Clear
8:16 PM -16.6 °F - -25.6 °F 64% 30.41 in 10.0 mi Calm Calm - N/A   Clear
8:36 PM -16.6 °F - -27.4 °F 58% 30.40 in 10.0 mi Calm Calm - N/A   Clear
8:56 PM -16.6 °F - -25.6 °F 64% 30.39 in 10.0 mi Calm Calm - N/A   Clear
9:16 PM -18.4 °F - -29.2 °F 58% 30.39 in 10.0 mi Calm Calm - N/A   Clear
9:36 PM -18.4 °F - - N/A% 30.39 in 10.0 mi Calm Calm - N/A   Clear
10:16 PM -18.4 °F - -27.4 °F 63% 30.37 in 10.0 mi Calm Calm - N/A   Partly Cloudy
10:36 PM -18.4 °F - -29.2 °F 58% 30.37 in 10.0 mi Calm Calm - N/A   Clear
10:56 PM -20.2 °F - - N/A% 30.36 in 7.0 mi Calm Calm - N/A   Clear
11:16 PM -18.4 °F - - N/A% 30.35 in 10.0 mi Calm Calm - N/A   Clear
11:36 PM -18.4 °F - -23.8 °F 76% 30.35 in 10.0 mi Calm Calm - N/A   Clear
11:56 PM -18.4 °F - - N/A% 30.34 in 10.0 mi Calm Calm - N/A   Clear